BREEZE-M R/B

基本信息
目录编号:
64468
目录名称:
BREEZE-M R/B
国际标识:
2025-131B
轨道中心:
EARTH
物体状态:
在轨
发射日期:
2025-06-19 UTC
国别:
俄罗斯(独联体) (CIS)
轨道信息
数据来源: 国际轨道数据
星历时间: 2026-06-17T09:22:00+0800
半长轴: 41037.416km
偏心率: 0.3855369
轨道倾角: 0.199°
近地点辐角: 81.357°
升交点赤经: 23.852°
平近点角: 299.877°
近地点: 18837.84km
远地点: 50480.718km
周期: 1378.890分钟
每日圈数: 1.044318
详细信息
发射场:
PKMTR
轨道高度:
MEO
数据来源:
AOE Working Group
参考系:
TEME
时间系统:
UTC
历元类型:
SGP4
2D轨道图
3D轨道图
轨道高度分析图
轨道倾角分析图
轨道综合分析图
查看轨道综合分析图